SBIRS GEO-6 (USA 336)

Last updated on Tue Sep 16 2025 00:02:50 GMT+0000 (Coordinated Universal Time)

1 53355U 22092A 25258.18390201 -.00000306 00000+0 00000+0 0 9990 2 53355 3.7512 313.7498 0001815 236.9365 8.9039 1.00270902 11478
UTC large
Height (km)
Speed (km/s)
/
Latitude / Longitude
Inclination (degrees)
Orbital Period (minutes)
Azimuth
Elevation
Range (km)
Doppler Factor

Next 0 passes for location: London (51.5072 / 0.1276)

Sorry there are no passes over London.